This is the latest recevied weather packets stored in our database for station/object K3CHZ. If no packets are shown the sender has not sent any weather packets the latest 10 day(s).
| Time | Temp. | Humidity | Pressure | Rain* | Wind** | Luminosity | Snow |
|---|---|---|---|---|---|---|---|
| 1777770741 | 9.44° C | 66% | 1013.3 hPa | 0 mm | - | - | - |
| 1777770441 | 9.44° C | 65% | 1013.3 hPa | 0 mm | - | - | - |
| 1777770140 | 9.44° C | 66% | 1013.1 hPa | 0 mm | - | - | - |
| 1777769840 | 10° C | 65% | 1013.1 hPa | 0 mm | - | - | - |
| 1777769540 | 10° C | 64% | 1013 hPa | 0 mm | - | - | - |
| 1777769241 | 10° C | 64% | 1013 hPa | 0 mm | - | - | - |
| 1777768941 | 10.56° C | 62% | 1013 hPa | 0 mm | - | - | - |
| 1777768641 | 10.56° C | 63% | 1012.9 hPa | 0 mm | - | - | - |
| 1777768343 | 10.56° C | 63% | 1012.8 hPa | 0 mm | - | - | - |
| 1777768039 | 11.11° C | 58% | 1012.8 hPa | 0 mm | - | - | - |
| 1777767739 | 11.11° C | 55% | 1012.7 hPa | 0 mm | - | - | - |
| 1777767437 | 11.11° C | 55% | 1012.6 hPa | 0 mm | - | - | - |
| 1777767137 | 11.11° C | 55% | 1012.6 hPa | 0 mm | - | - | - |
| 1777766838 | 11.67° C | 55% | 1012.7 hPa | 0 mm | - | - | - |
| 1777766537 | 11.67° C | 54% | 1012.6 hPa | 0 mm | - | - | - |
| 1777766238 | 11.67° C | 53% | 1012.6 hPa | 0 mm | - | - | - |
| 1777765938 | 11.67° C | 53% | 1012.6 hPa | 0 mm | - | - | - |
| 1777765640 | 11.67° C | 53% | 1012.4 hPa | 0 mm | - | - | - |
| 1777765337 | 11.67° C | 53% | 1012.4 hPa | 0 mm | - | - | - |
| 1777765040 | 12.22° C | 52% | 1012.4 hPa | 0 mm | - | - | - |
| 1777764738 | 12.22° C | 52% | 1012.4 hPa | 0 mm | - | - | - |
| 1777764439 | 12.22° C | 52% | 1012.3 hPa | 0 mm | - | - | - |
| 1777764137 | 12.22° C | 52% | 1012.4 hPa | 0 mm | - | - | - |
| 1777763838 | 12.22° C | 51% | 1012.4 hPa | 0 mm | - | - | - |
| 1777763538 | 12.22° C | 51% | 1012.3 hPa | 0 mm | - | - | - |
* Rain latest hour (hover to see other rain measurements)
** Current wind speed in m/s (hover to see current wind gust speed)